Location: Newark
(45.5167°N, 11.1667°E)
Time: 08:06:51
(UTC+00:00)

Explorer 7 - Pass Details

Date: 20 December 2019
Orbit: 485 x 679 km, 50.3° (Epoch: 21 January)

Event Time Altitude Azimuth Distance (km) Brightness Sun altitude
Rises 15:39:14 0° 292° (WNW) 2,998 11.1 -1.6°
Reaches altitude 10° 15:41:36 10° 295° (WNW) 2,100 10.3 -2.0°
Maximum altitude 15:46:27 63° 17° (NNE) 761 7.4 -2.7°
Drops below altitude 10° 15:51:19 10° 99° (E) 2,112 9.3 -3.4°
Sets 15:53:42 0° 102° (ESE) 3,016 10.1 -3.8°
